| time (UTC) | temp F | wind direction | speed MPH | gust MPH | rain 1hr in | rain 24hr in | rain mn in | humidity % | barometer mb |
| 20260505031333 | 65 | 176 | 5.0 | 6.0 | 0.00 | 0.00 | 0.00 | 66 | 1023.0 |
| 20260505030830 | 65 | 178 | 5.0 | 7.0 | 0.00 | 0.00 | 0.00 | 66 | 1022.9 |
| 20260505030326 | 65 | 174 | 4.0 | 6.0 | 0.00 | 0.00 | 0.00 | 65 | 1022.9 |
| 20260505025822 | 65 | 163 | 4.0 | 6.0 | 0.00 | 0.00 | 0.00 | 65 | 1022.8 |
| 20260505025320 | 65 | 187 | 5.0 | 8.0 | 0.00 | 0.00 | 0.00 | 65 | 1022.9 |
| 20260505024818 | 65 | 162 | 6.0 | 8.0 | 0.00 | 0.00 | 0.00 | 64 | 1023.2 |
| 20260505024315 | 65 | 176 | 6.0 | 7.0 | 0.00 | 0.00 | 0.00 | 64 | 1023.0 |
| 20260505023812 | 66 | 168 | 5.0 | 8.0 | 0.00 | 0.00 | 0.00 | 63 | 1023.0 |
| 20260505023309 | 66 | 168 | 6.0 | 7.0 | 0.00 | 0.00 | 0.00 | 63 | 1023.0 |
| 20260505022806 | 66 | 167 | 6.0 | 7.0 | 0.00 | 0.00 | 0.00 | 62 | 1022.7 |
| 20260505022304 | 66 | 185 | 5.0 | 7.0 | 0.00 | 0.00 | 0.00 | 61 | 1022.6 |
| 20260505021800 | 66 | 194 | 4.0 | 6.0 | 0.00 | 0.00 | 0.00 | 61 | 1022.6 |
| 20260505021257 | 66 | 158 | 5.0 | 7.0 | 0.00 | 0.00 | 0.00 | 60 | 1022.6 |
| 20260505020753 | 67 | 178 | 7.0 | 8.0 | 0.00 | 0.00 | 0.00 | 59 | 1022.7 |
| 20260505020248 | 67 | 171 | 7.0 | 8.0 | 0.00 | 0.00 | 0.00 | 58 | 1022.6 |
| 20260505015746 | 67 | 182 | 6.0 | 10.0 | 0.00 | 0.00 | 0.00 | 57 | 1022.7 |
| 20260505015242 | 68 | 168 | 5.0 | 10.0 | 0.00 | 0.00 | 0.00 | 57 | 1022.8 |
| 20260505014739 | 67 | 157 | 8.0 | 10.0 | 0.00 | 0.00 | 0.00 | 56 | 1022.5 |
| 20260505014237 | 68 | 166 | 4.0 | 9.0 | 0.00 | 0.00 | 0.00 | 56 | 1022.4 |
| 20260505013733 | 68 | 150 | 7.0 | 11.0 | 0.00 | 0.00 | 0.00 | 55 | 1022.2 |
| 20260505013231 | 68 | 159 | 6.0 | 10.0 | 0.00 | 0.00 | 0.00 | 55 | 1022.2 |
| 20260505012729 | 68 | 169 | 5.0 | 8.0 | 0.00 | 0.00 | 0.00 | 54 | 1022.2 |
| 20260505012226 | 69 | 158 | 6.0 | 10.0 | 0.00 | 0.00 | 0.00 | 54 | 1022.2 |
| 20260505011721 | 69 | 157 | 7.0 | 11.0 | 0.00 | 0.00 | 0.00 | 53 | 1022.2 |
| 20260505011219 | 69 | 177 | 6.0 | 7.0 | 0.00 | 0.00 | 0.00 | 53 | 1022.0 |
| 20260505010714 | 69 | 173 | 6.0 | 10.0 | 0.00 | 0.00 | 0.00 | 53 | 1022.0 |
| 20260505010211 | 69 | 160 | 8.0 | 9.0 | 0.00 | 0.00 | 0.00 | 53 | 1021.8 |
| 20260505005707 | 69 | 172 | 7.0 | 8.0 | 0.00 | 0.00 | 0.00 | 52 | 1021.8 |
| 20260505005205 | 70 | 171 | 5.0 | 6.0 | 0.00 | 0.00 | 0.00 | 52 | 1021.7 |
| 20260505004702 | 70 | 165 | 9.0 | 13.0 | 0.00 | 0.00 | 0.00 | 51 | 1021.4 |
| 20260505004158 | 70 | 182 | 7.0 | 8.0 | 0.00 | 0.00 | 0.00 | 51 | 1021.6 |
| 20260505003655 | 71 | 160 | 6.0 | 11.0 | 0.00 | 0.00 | 0.00 | 51 | 1021.8 |
| 20260505003153 | 71 | 159 | 4.0 | 8.0 | 0.00 | 0.00 | 0.00 | 51 | 1021.8 |
| 20260505002649 | 71 | 170 | 7.0 | 9.0 | 0.00 | 0.00 | 0.00 | 50 | 1021.4 |
| 20260505002147 | 72 | 146 | 7.0 | 10.0 | 0.00 | 0.00 | 0.00 | 50 | 1021.5 |
| 20260505001643 | 72 | 173 | 10.0 | 11.0 | 0.00 | 0.00 | 0.00 | 50 | 1021.7 |
| 20260505001141 | 72 | 168 | 5.0 | 10.0 | 0.00 | 0.00 | 0.00 | 50 | 1021.7 |
| 20260505000638 | 72 | 164 | 7.0 | 11.0 | 0.00 | 0.00 | 0.00 | 50 | 1021.4 |
| 20260505000136 | 73 | 141 | 6.0 | 9.0 | 0.00 | 0.00 | 0.00 | 49 | 1021.4 |
| 20260504235632 | 73 | 169 | 7.0 | 9.0 | 0.00 | 0.00 | 0.00 | 48 | 1021.4 |
| 20260504235129 | 74 | 176 | 7.0 | 11.0 | 0.00 | 0.00 | 0.00 | 48 | 1021.3 |
| 20260504234626 | 74 | 178 | 9.0 | 11.0 | 0.00 | 0.00 | 0.00 | 47 | 1021.3 |
| 20260504234123 | 75 | 156 | 6.0 | 11.0 | 0.00 | 0.00 | 0.00 | 47 | 1021.2 |
| 20260504233619 | 75 | 166 | 7.0 | 11.0 | 0.00 | 0.00 | 0.00 | 45 | 1021.1 |
| 20260504233115 | 76 | 172 | 10.0 | 14.0 | 0.00 | 0.00 | 0.00 | 44 | 1021.0 |
| 20260504232613 | 77 | 194 | 6.0 | 9.0 | 0.00 | 0.00 | 0.00 | 39 | 1021.0 |
| 20260504232110 | 77 | 173 | 5.0 | 8.0 | 0.00 | 0.00 | 0.00 | 38 | 1021.0 |
| 20260504231606 | 77 | 219 | 7.0 | 9.0 | 0.00 | 0.00 | 0.00 | 37 | 1020.7 |
| 20260504231102 | 78 | 191 | 7.0 | 8.0 | 0.00 | 0.00 | 0.00 | 37 | 1020.7 |
| 20260504230558 | 78 | 179 | 3.0 | 3.0 | 0.00 | 0.00 | 0.00 | 35 | 1020.9 |
| 20260504230058 | 78 | 220 | 4.0 | 5.0 | 0.00 | 0.00 | 0.00 | 33 | 1020.8 |
| 20260504225555 | 78 | 201 | 3.0 | 5.0 | 0.00 | 0.00 | 0.00 | 34 | 1020.7 |
| 20260504225052 | 78 | 195 | 3.0 | 6.0 | 0.00 | 0.00 | 0.00 | 34 | 1020.6 |
| 20260504224548 | 78 | 183 | 2.0 | 6.0 | 0.00 | 0.00 | 0.00 | 34 | 1020.7 |
| 20260504224046 | 79 | 250 | 3.0 | 5.0 | 0.00 | 0.00 | 0.00 | 33 | 1020.8 |
| 20260504223542 | 79 | 189 | 2.0 | 3.0 | 0.00 | 0.00 | 0.00 | 32 | 1021.0 |
| 20260504223038 | 79 | 208 | 4.0 | 6.0 | 0.00 | 0.00 | 0.00 | 31 | 1021.0 |
| 20260504222535 | 78 | 184 | 2.0 | 6.0 | 0.00 | 0.00 | 0.00 | 32 | 1021.1 |
| 20260504222032 | 79 | 238 | 5.0 | 8.0 | 0.00 | 0.00 | 0.00 | 32 | 1021.2 |
| 20260504221530 | 79 | 226 | 3.0 | 7.0 | 0.00 | 0.00 | 0.00 | 33 | 1021.0 |
| 20260504221026 | 80 | 185 | 8.0 | 9.0 | 0.00 | 0.00 | 0.00 | 32 | 1021.1 |
| 20260504220523 | 80 | 268 | 4.0 | 6.0 | 0.00 | 0.00 | 0.00 | 32 | 1021.0 |
| 20260504220020 | 79 | 184 | 8.0 | 10.0 | 0.00 | 0.00 | 0.00 | 32 | 1021.1 |
| 20260504215516 | 80 | 193 | 8.0 | 9.0 | 0.00 | 0.00 | 0.00 | 31 | 1021.1 |
| 20260504215014 | 79 | 191 | 4.0 | 7.0 | 0.00 | 0.00 | 0.00 | 32 | 1020.8 |
| 20260504214510 | 79 | 196 | 3.0 | 11.0 | 0.00 | 0.00 | 0.00 | 33 | 1021.1 |
| 20260504214006 | 80 | 161 | 5.0 | 9.0 | 0.00 | 0.00 | 0.00 | 32 | 1021.0 |
| 20260504213502 | 80 | 194 | 4.0 | 5.0 | 0.00 | 0.00 | 0.00 | 33 | 1021.0 |
| 20260504213000 | 79 | 180 | 4.0 | 6.0 | 0.00 | 0.00 | 0.00 | 32 | 1020.9 |
| 20260504212455 | 81 | 193 | 7.0 | 8.0 | 0.00 | 0.00 | 0.00 | 30 | 1021.0 |
| 20260504211953 | 80 | 179 | 7.0 | 9.0 | 0.00 | 0.00 | 0.00 | 31 | 1021.1 |
| 20260504211449 | 81 | 187 | 8.0 | 8.0 | 0.00 | 0.00 | 0.00 | 31 | 1021.3 |
| 20260504210947 | 80 | 205 | 9.0 | 14.0 | 0.00 | 0.00 | 0.00 | 30 | 1021.1 |
| 20260504210444 | 80 | 201 | 6.0 | 8.0 | 0.00 | 0.00 | 0.00 | 30 | 1021.1 |
| 20260504205941 | 80 | 177 | 11.0 | 11.0 | 0.00 | 0.00 | 0.00 | 30 | 1021.0 |
| 20260504205438 | 80 | 123 | 4.0 | 10.0 | 0.00 | 0.00 | 0.00 | 32 | 1021.3 |
| 20260504204936 | 80 | 92 | 1.0 | 5.0 | 0.00 | 0.00 | 0.00 | 33 | 1021.0 |
| 20260504204434 | 80 | 193 | 3.0 | 8.0 | 0.00 | 0.00 | 0.00 | 32 | 1021.1 |
| 20260504203933 | 80 | 221 | 7.0 | 8.0 | 0.00 | 0.00 | 0.00 | 32 | 1021.1 |
| 20260504203431 | 81 | 202 | 4.0 | 6.0 | 0.00 | 0.00 | 0.00 | 31 | 1021.2 |
| 20260504202926 | 79 | 115 | 3.0 | 6.0 | 0.00 | 0.00 | 0.00 | 32 | 1021.3 |
| 20260504202423 | 80 | 337 | 1.0 | 8.0 | 0.00 | 0.00 | 0.00 | 32 | 1021.4 |
| 20260504201920 | 80 | 215 | 3.0 | 6.0 | 0.00 | 0.00 | 0.00 | 31 | 1021.5 |
| 20260504201417 | 80 | 122 | 2.0 | 3.0 | 0.00 | 0.00 | 0.00 | 32 | 1021.7 |
| 20260504200915 | 80 | 234 | 6.0 | 8.0 | 0.00 | 0.00 | 0.00 | 31 | 1021.8 |
| 20260504200411 | 79 | 155 | 9.0 | 10.0 | 0.00 | 0.00 | 0.00 | 32 | 1021.8 |
| 20260504195908 | 79 | 201 | 5.0 | 6.0 | 0.00 | 0.00 | 0.00 | 32 | 1021.9 |
| 20260504195404 | 79 | 189 | 3.0 | 6.0 | 0.00 | 0.00 | 0.00 | 32 | 1021.9 |
| 20260504194900 | 78 | 197 | 5.0 | 6.0 | 0.00 | 0.00 | 0.00 | 32 | 1021.8 |
| 20260504194356 | 79 | 204 | 10.0 | 11.0 | 0.00 | 0.00 | 0.00 | 32 | 1022.1 |
| 20260504193852 | 79 | 147 | 0.0 | 1.0 | 0.00 | 0.00 | 0.00 | 31 | 1022.2 |
| 20260504193350 | 79 | 289 | 3.0 | 3.0 | 0.00 | 0.00 | 0.00 | 32 | 1022.0 |
| 20260504192849 | 78 | 232 | 2.0 | 8.0 | 0.00 | 0.00 | 0.00 | 32 | 1022.3 |
| 20260504192346 | 78 | 189 | 3.0 | 7.0 | 0.00 | 0.00 | 0.00 | 32 | 1022.3 |
| 20260504191844 | 79 | 246 | 7.0 | 9.0 | 0.00 | 0.00 | 0.00 | 33 | 1022.2 |
| 20260504191342 | 79 | 231 | 5.0 | 6.0 | 0.00 | 0.00 | 0.00 | 31 | 1022.2 |
| 20260504190837 | 79 | 236 | 4.0 | 6.0 | 0.00 | 0.00 | 0.00 | 31 | 1022.3 |
| 20260504190333 | 79 | 156 | 4.0 | 7.0 | 0.00 | 0.00 | 0.00 | 32 | 1022.4 |
| 20260504185830 | 79 | 201 | 2.0 | 5.0 | 0.00 | 0.00 | 0.00 | 33 | 1022.6 |
| 20260504185327 | 78 | 221 | 4.0 | 5.0 | 0.00 | 0.00 | 0.00 | 33 | 1022.6 |
| 20260504184823 | 78 | 172 | 7.0 | 9.0 | 0.00 | 0.00 | 0.00 | 34 | 1022.7 |
| 20260504184319 | 78 | 96 | 1.0 | 8.0 | 0.00 | 0.00 | 0.00 | 33 | 1022.9 |
| 20260504183815 | 77 | 184 | 7.0 | 8.0 | 0.00 | 0.00 | 0.00 | 33 | 1022.9 |
| 20260504183312 | 78 | 173 | 3.0 | 9.0 | 0.00 | 0.00 | 0.00 | 33 | 1022.9 |
| 20260504182810 | 78 | 182 | 1.0 | 1.0 | 0.00 | 0.00 | 0.00 | 32 | 1022.9 |
| 20260504182307 | 77 | 144 | 0.0 | 2.0 | 0.00 | 0.00 | 0.00 | 32 | 1022.9 |
| 20260504181804 | 77 | 220 | 5.0 | 6.0 | 0.00 | 0.00 | 0.00 | 32 | 1022.8 |
| 20260504181301 | 78 | 232 | 5.0 | 8.0 | 0.00 | 0.00 | 0.00 | 32 | 1023.0 |
| 20260504180801 | 78 | 225 | 5.0 | 8.0 | 0.00 | 0.00 | 0.00 | 32 | 1022.9 |
| 20260504180259 | 78 | 159 | 0.0 | 3.0 | 0.00 | 0.00 | 0.00 | 34 | 1023.0 |
| 20260504175756 | 78 | 218 | 2.0 | 3.0 | 0.00 | 0.00 | 0.00 | 35 | 1022.9 |
| 20260504175253 | 77 | 354 | 4.0 | 5.0 | 0.00 | 0.00 | 0.00 | 34 | 1022.9 |
| 20260504174751 | 76 | 72 | 2.0 | 3.0 | 0.00 | 0.00 | 0.00 | 34 | 1023.2 |
| 20260504174248 | 77 | 280 | 5.0 | 6.0 | 0.00 | 0.00 | 0.00 | 33 | 1023.2 |
| 20260504173745 | 77 | 266 | 3.0 | 5.0 | 0.00 | 0.00 | 0.00 | 35 | 1023.2 |
| 20260504173242 | 77 | 182 | 2.0 | 7.0 | 0.00 | 0.00 | 0.00 | 34 | 1023.3 |
| 20260504172738 | 77 | 166 | 1.0 | 3.0 | 0.00 | 0.00 | 0.00 | 34 | 1023.1 |
| 20260504172235 | 76 | 44 | 3.0 | 8.0 | 0.00 | 0.00 | 0.00 | 32 | 1023.4 |
| 20260504171731 | 76 | 199 | 1.0 | 10.0 | 0.00 | 0.00 | 0.00 | 34 | 1023.5 |
| 20260504171228 | 76 | 355 | 5.0 | 6.0 | 0.00 | 0.00 | 0.00 | 35 | 1023.5 |
| 20260504170725 | 76 | 121 | 3.0 | 5.0 | 0.00 | 0.00 | 0.00 | 33 | 1023.4 |
| 20260504170223 | 75 | 94 | 2.0 | 3.0 | 0.00 | 0.00 | 0.00 | 32 | 1023.6 |
| 20260504160141 | 75 | 152 | 1.0 | 2.0 | 0.00 | 0.00 | 0.00 | 35 | 1024.2 |
| 20260504151108 | 73 | 291 | 2.0 | 3.0 | 0.00 | 0.00 | 0.00 | 41 | 1024.6 |
| 20260504150606 | 72 | 170 | 1.0 | 2.0 | 0.00 | 0.00 | 0.00 | 41 | 1024.8 |
| 20260504141031 | 68 | 110 | 1.0 | 3.0 | 0.00 | 0.00 | 0.00 | 60 | 1024.9 |
| 20260504140528 | 68 | 156 | 2.0 | 3.0 | 0.00 | 0.00 | 0.00 | 63 | 1024.7 |
| 20260504130452 | 61 | 153 | 2.0 | 3.0 | 0.00 | 0.00 | 0.00 | 83 | 1024.8 |
| 20260504110339 | 47 | 131 | 0.0 | 1.0 | 0.00 | 0.00 | 0.00 | 98 | 1024.4 |
| 20260504100257 | 48 | 125 | 0.0 | 1.0 | 0.00 | 0.00 | 0.00 | 97 | 1023.5 |
| 20260504081650 | 49 | 162 | 0.0 | 0.0 | 0.00 | 0.00 | 0.00 | 96 | 1023.8 |
| 20260504081146 | 49 | 162 | 0.0 | 0.0 | 0.00 | 0.00 | 0.00 | 96 | 1023.8 |
| 20260504080643 | 49 | 162 | 0.0 | 1.0 | 0.00 | 0.00 | 0.00 | 96 | 1023.5 |
| 20260504080139 | 49 | 158 | 0.0 | 0.0 | 0.00 | 0.00 | 0.00 | 96 | 1023.9 |
| 20260504070108 | 50 | 164 | 0.0 | 0.0 | 0.00 | 0.00 | 0.00 | 95 | 1024.5 |
| 20260504050456 | 53 | 165 | 0.0 | 0.0 | 0.00 | 0.00 | 0.00 | 91 | 1024.7 |
| 20260504045953 | 53 | 165 | 0.0 | 0.0 | 0.00 | 0.00 | 0.00 | 91 | 1024.7 |
| 20260504045448 | 53 | 165 | 0.0 | 1.0 | 0.00 | 0.00 | 0.00 | 90 | 1024.6 |
| 20260504044945 | 53 | 165 | 1.0 | 1.0 | 0.00 | 0.00 | 0.00 | 90 | 1024.8 |
| 20260504044443 | 53 | 165 | 0.0 | 0.0 | 0.00 | 0.00 | 0.00 | 90 | 1024.9 |
| 20260504043940 | 54 | 165 | 0.0 | 0.0 | 0.00 | 0.00 | 0.00 | 89 | 1024.9 |
| 20260504043437 | 54 | 165 | 0.0 | 0.0 | 0.00 | 0.00 | 0.00 | 88 | 1024.8 |
| 20260504042934 | 54 | 165 | 0.0 | 0.0 | 0.00 | 0.00 | 0.00 | 88 | 1025.0 |
| 20260504042431 | 55 | 165 | 0.0 | 0.0 | 0.00 | 0.00 | 0.00 | 88 | 1024.7 |
| 20260504041927 | 55 | 165 | 0.0 | 0.0 | 0.00 | 0.00 | 0.00 | 87 | 1024.8 |
| 20260504041423 | 55 | 165 | 0.0 | 1.0 | 0.00 | 0.00 | 0.00 | 86 | 1024.8 |
| 20260504040920 | 55 | 165 | 0.0 | 0.0 | 0.00 | 0.00 | 0.00 | 85 | 1024.7 |
| 20260504040418 | 56 | 165 | 0.0 | 1.0 | 0.00 | 0.00 | 0.00 | 85 | 1024.7 |
| 20260504035908 | 56 | 165 | 0.0 | 1.0 | 0.00 | 0.13 | 0.13 | 84 | 1024.7 |
| 20260504035406 | 57 | 165 | 0.0 | 1.0 | 0.00 | 0.13 | 0.13 | 83 | 1024.6 |
| 20260504034902 | 57 | 166 | 1.0 | 1.0 | 0.00 | 0.13 | 0.13 | 82 | 1024.8 |
| 20260504034400 | 58 | 164 | 0.0 | 1.0 | 0.00 | 0.13 | 0.13 | 81 | 1024.8 |
| 20260504033856 | 58 | 175 | 3.0 | 3.0 | 0.00 | 0.13 | 0.13 | 81 | 1024.5 |
| 20260504033354 | 58 | 184 | 2.0 | 2.0 | 0.00 | 0.13 | 0.13 | 80 | 1024.6 |
| 20260504032850 | 58 | 177 | 2.0 | 3.0 | 0.00 | 0.13 | 0.13 | 81 | 1024.4 |
| 20260504032348 | 58 | 185 | 2.0 | 3.0 | 0.00 | 0.13 | 0.13 | 81 | 1024.6 |
| 20260504031845 | 59 | 169 | 2.0 | 2.0 | 0.00 | 0.13 | 0.13 | 80 | 1024.4 |